Hourly Data Report for August 26, 2017

QUALICUM BEACH AIRPORT
BRITISH COLUMBIA

49°20'14.000" N
124°23'38.000" W
58.20 m
1026562
71766
VOQ

Download Data

Hourly Data (August 2017)
Hourly Data Report for August 26, 2017
TIME
LST
Temp Definition
°C
Dew Point Definition
°C
Rel Hum Definition
%
Precip. Amount Definition
mm

Wind Dir Definition
10's deg

Wind Spd Definition
km/h
Visibility Definition
km
Stn Press Definition
kPa
Hmdx Definition


Wind Chill Definition


Weather Definition


00:00 12.8 9.1 78 0.0 29 2   101.23     LegendNANA
01:00 11.6 8.7 83 0.0 22 2   101.27     LegendNANA
02:00 12.1 8.8 81 0.0 29 3   101.31     LegendNANA
03:00 10.4 8.4 87 0.0   0   101.33     LegendNANA
04:00 10.2 8.4 89 0.0 25 2   101.36     LegendNANA
05:00 9.4 7.7 89 0.0   0   101.40     LegendNANA
06:00 9.9 7.9 88 0.0 0 1   101.45     LegendNANA
07:00 14.0 9.8 76 0.0 0 1   101.48     LegendNANA
08:00 18.8 11.1 61 0.0 2 2   101.51     LegendNANA
09:00 19.0 11.8 63 0.0 9 8   101.54     LegendNANA
10:00 19.6 11.9 61 0.0 8 9   101.56     LegendNANA
11:00 20.7 12.1 58 0.0 8 9   101.55     LegendNANA
12:00 22.2 12.1 53 0.0 8 8   101.53 25   LegendNANA
13:00 22.0 10.5 48 0.0 10 10   101.51     LegendNANA
14:00 23.5 10.3 43 0.0 5 7   101.49 25   LegendNANA
15:00 22.9 10.1 44 0.0 2 5   101.46     LegendNANA
16:00 25.2 9.5 37 0.0 1 6   101.38 26   LegendNANA
17:00 24.1 9.3 39 0.0 36 5   101.35 25   LegendNANA
18:00 24.5 8.6 37 0.0 30 5   101.33 25   LegendNANA
19:00 21.9 9.3 45 0.0 29 4   101.33     LegendNANA
20:00 18.6 11.2 62 0.0 26 2   101.37     LegendNANA
21:00 17.1 11.1 68 0.0 22 2   101.36     LegendNANA
22:00 17.2 11.1 68 0.0 27 2   101.37     LegendNANA
23:00 16.0 11.1 73 0.0 0 1   101.37     LegendNANA

Notes on Data Quality.

Legend

  • E = Estimated
  • M = Missing
  • NA = Not Available*
  • [empty] = Indicates an unobserved value
Date modified: